Wind_Speed
19 19 18 18 18 18 18 17 16 17 20 23 23 23 23 23 24 25 25 25 25 25 25 23 20 16 12 15 19 23 27 30 30 27 24 23 22 22 21 21 20 20 20 20 21 21 21 21 22 23 24 23 24 26 29 31 31 31 32 33 32 31 30 30 30 30 31 33 34 35 35 36 37 38 39 39 38 36 35 35 35 35 34 34 34 35
19 18 17 16 17 17 17 16 15 15 17 20 22 22 23 23 23 24 24 24 25 25 24 21 18 15 10 11 15 19 23 26 27 26 24 23 23 22 21 20 20 20 20 20 21 21 22 22 22 22 22 22 22 24 28 30 31 32 33 33 32 29 28 28 29 29 29 30 32 33 35 36 38 39 39 39 38 36 35 35 35 35 34 35 35 36
18 17 17 16 16 16 16 16 15 15 16 18 21 22 22 21 21 21 21 22 25 26 24 20 17 14 10 8 11 15 18 22 24 24 23 23 22 22 21 20 19 19 19 20 20 21 22 23 23 23 22 21 21 23 27 30 32 32 34 33 31 29 28 29 29 30 30 30 31 32 35 36 37 39 40 40 38 36 35 35 35 36 36 36 36 37
18 17 17 16 16 16 16 16 15 15 16 17 19 20 20 19 18 18 19 21 25 27 25 21 16 14 11 8 8 12 15 17 20 21 21 21 21 21 20 20 19 19 19 19 19 21 22 23 24 24 23 22 21 23 26 30 32 33 33 32 30 29 30 31 31 31 31 30 30 31 33 35 36 37 39 40 39 38 37 36 37 37 37 38 38 37
18 17 16 15 14 15 15 15 15 15 15 15 16 16 16 16 17 17 19 21 24 27 26 22 17 14 12 10 7 8 12 14 16 17 18 18 19 20 20 20 20 19 19 18 18 19 21 23 24 24 24 23 22 22 25 30 32 33 32 31 30 30 32 33 33 33 32 31 30 30 31 32 33 34 36 39 40 39 38 38 39 39 40 39 38 38
18 17 15 14 13 13 13 14 15 15 15 15 16 16 16 16 16 17 18 19 22 26 27 23 17 14 13 12 9 6 8 11 13 14 15 15 16 18 18 19 19 19 19 18 18 18 20 21 23 24 25 24 22 21 22 26 30 32 32 31 31 32 34 35 34 34 32 31 30 30 30 31 31 32 33 36 39 39 39 39 40 40 40 39 39 39
18 16 14 13 13 13 14 15 16 17 16 16 16 16 17 17 18 18 18 20 22 25 27 23 17 14 14 13 11 8 6 8 11 13 14 15 15 16 17 18 19 19 19 18 18 18 18 20 22 24 25 25 24 22 21 22 26 30 33 33 33 34 35 35 35 33 32 31 29 28 27 30 31 32 33 34 35 37 38 39 40 40 39 38 38 39
17 16 14 13 13 14 15 16 16 17 17 16 16 16 17 18 19 20 20 20 21 23 25 21 17 15 14 14 13 10 6 7 9 12 14 15 16 16 16 17 18 18 19 19 18 18 18 19 21 23 25 26 26 24 22 22 23 26 30 31 33 36 37 36 35 34 32 31 29 27 25 27 30 32 33 34 33 32 33 35 36 36 36 36 38 39
16 15 14 13 13 13 14 15 15 15 16 17 17 16 16 17 19 20 20 20 20 20 21 19 16 15 15 14 14 12 9 7 8 11 14 16 17 18 18 18 18 19 19 19 19 19 19 19 20 23 25 27 27 27 26 25 24 24 26 27 30 34 37 37 35 33 31 30 29 27 26 26 28 30 32 33 32 31 30 30 31 32 32 35 38 39
18 17 16 15 15 14 14 15 15 16 17 18 19 18 17 16 16 17 19 19 19 19 19 18 16 15 15 15 14 14 12 9 9 11 13 16 18 18 18 18 19 19 20 20 20 20 20 20 20 22 25 26 28 28 28 28 27 26 25 25 26 30 34 36 35 33 30 30 29 28 27 27 27 28 30 31 31 30 29 28 28 29 31 35 39 41
16 17 17 17 17 16 15 14 15 16 18 18 19 19 17 16 15 15 16 17 18 18 18 17 16 15 15 15 15 15 14 12 10 10 12 15 16 18 18 18 19 19 19 20 20 20 20 20 21 22 24 25 27 28 29 29 29 28 27 26 26 28 32 34 33 31 30 29 29 29 28 28 27 27 28 29 29 29 28 28 28 30 32 35 39 42
7 8 9 10 9 8 7 7 9 12 13 12 12 13 15 15 15 13 13 14 16 17 17 17 17 15 14 14 14 15 15 14 11 11 12 14 16 17 17 18 18 18 19 19 19 19 20 20 21 22 23 24 25 27 28 29 30 29 29 28 28 29 31 31 30 29 28 29 29 29 29 29 27 26 26 27 28 29 28 28 29 30 33 35 38 40
11 10 8 6 5 6 8 9 10 11 12 10 8 6 6 6 8 10 12 14 15 17 18 18 18 16 15 14 14 15 15 15 13 12 13 15 17 18 18 18 18 18 18 19 19 19 19 20 20 21 22 23 24 25 27 28 30 30 30 29 29 29 30 29 28 27 28 28 28 28 28 29 28 26 25 26 27 28 29 29 30 32 34 34 35 37
11 11 10 9 9 9 10 10 9 9 10 11 11 11 12 11 9 8 10 13 16 18 19 19 18 16 15 15 15 15 15 15 14 13 15 16 18 19 19 18 18 18 18 19 19 19 20 20 20 21 22 23 24 24 25 27 29 30 31 29 28 28 29 28 27 27 27 28 28 27 27 27 27 26 25 26 27 28 30 31 33 34 34 33 34 36
11 10 8 7 7 8 9 9 9 8 9 12 14 16 17 16 13 10 9 11 14 16 16 16 17 17 16 16 16 16 15 14 14 15 16 17 18 18 18 18 18 18 18 18 19 20 20 20 21 22 23 23 24 24 25 26 27 29 29 28 25 25 26 27 27 27 27 27 27 26 26 25 25 25 25 26 28 30 31 33 34 35 34 35 37 39
11 10 8 7 7 8 9 10 10 10 11 13 15 15 15 13 12 11 10 10 10 11 12 12 12 13 15 16 15 14 14 14 15 17 16 16 17 18 18 17 17 18 18 18 18 19 20 20 21 22 23 24 25 25 25 26 26 26 27 26 24 22 24 27 28 28 27 26 25 25 25 25 25 25 26 27 29 32 33 34 35 36 37 39 41 42
11 10 9 8 8 9 10 10 11 11 12 14 14 14 13 12 12 12 11 10 9 9 9 9 5 4 7 12 12 11 12 14 16 17 16 15 16 17 17 17 17 18 18 18 18 19 19 20 21 21 23 24 25 25 26 25 25 25 24 24 23 22 24 27 29 28 27 26 24 23 23 24 25 26 28 30 32 34 35 36 38 40 42 44 45 45
11 11 10 9 9 10 11 11 12 13 13 14 14 15 15 15 14 13 12 11 10 8 9 9 7 3 2 4 6 6 10 14 16 16 14 14 15 16 17 17 18 18 18 18 18 19 19 20 20 21 22 23 24 25 25 25 24 24 23 23 23 24 26 28 29 29 26 25 23 22 22 24 26 29 32 33 35 36 38 41 44 46 47 47 47 46
11 12 12 11 11 11 11 12 12 13 14 14 15 16 15 15 14 13 12 11 11 10 10 9 9 8 6 6 6 7 8 12 14 14 13 13 13 14 17 18 18 18 18 18 19 19 19 19 20 21 21 22 23 23 23 23 23 23 23 23 24 25 27 30 30 30 27 25 23 23 23 26 30 33 36 37 38 41 44 47 49 50 49 48 47 46
11 12 13 13 13 12 12 12 14 15 15 15 16 15 13 13 13 12 11 12 13 12 9 8 9 8 7 7 8 8 8 10 12 12 12 11 11 13 16 18 18 18 17 18 19 19 19 19 19 19 20 21 21 22 22 22 22 22 23 24 25 27 30 31 32 32 30 28 27 26 28 32 36 39 40 41 44 48 51 52 52 51 50 48 47 46
12 13 15 16 15 13 12 14 16 17 16 16 16 14 12 12 11 10 11 12 13 12 8 5 5 6 6 7 8 9 9 9 10 10 9 9 10 12 16 18 18 18 18 18 19 20 20 20 19 19 19 20 20 20 20 21 21 22 23 25 27 30 32 33 33 33 32 32 31 31 34 38 42 43 44 47 51 53 54 54 53 52 51 49 48 47
13 14 17 18 17 15 14 17 18 18 17 16 14 13 11 11 10 10 11 12 12 11 9 8 7 7 7 8 9 10 10 9 8 7 7 7 7 9 15 17 18 18 17 18 19 20 21 20 20 20 19 20 20 20 20 20 21 22 24 27 30 32 33 34 34 35 35 34 35 38 42 46 48 49 51 54 55 55 54 54 53 52 51 50 48 47
16 16 18 19 18 17 17 18 19 19 18 17 14 13 13 12 12 12 13 14 14 13 14 13 12 10 9 9 10 11 10 9 8 7 6 4 4 8 14 17 18 18 16 17 18 20 21 21 21 20 20 20 21 21 20 21 22 24 26 29 32 34 35 36 37 38 38 39 42 46 49 52 53 55 56 57 56 55 54 53 53 52 51 49 48 45
18 18 19 19 19 19 18 19 19 20 20 19 17 16 14 13 13 14 16 16 16 16 16 14 12 11 10 10 11 11 11 10 8 6 5 4 5 8 13 17 17 16 15 16 17 20 21 22 22 21 21 21 21 21 21 22 24 26 28 31 34 36 37 39 41 42 43 45 48 52 54 55 56 57 57 57 56 55 54 53 52 51 50 48 45 42
18 18 18 18 18 17 17 17 18 19 20 20 19 18 15 11 9 10 11 12 13 13 14 13 11 9 8 9 10 11 12 12 9 6 5 5 7 10 13 16 17 16 15 15 18 20 22 23 23 23 23 23 23 22 23 25 27 29 31 34 36 39 42 44 45 46 48 51 54 56 56 56 57 57 57 57 56 55 53 52 51 50 47 45 42 39
17 17 17 17 16 16 15 15 16 17 19 20 20 19 16 11 7 5 5 6 7 8 9 9 7 5 4 5 6 8 10 12 10 8 8 8 9 11 13 16 17 17 17 18 19 22 24 24 23 24 26 27 26 25 26 28 30 33 35 38 41 44 47 48 49 51 54 57 58 58 57 57 56 56 56 56 55 54 53 51 49 47 45 42 40 38
17 17 17 17 16 16 15 15 16 17 18 19 19 18 17 13 10 8 7 8 9 7 6 4 3 3 4 4 5 6 7 9 9 9 10 12 12 11 13 17 20 22 21 21 22 24 25 24 23 24 28 29 30 31 32 34 36 38 41 44 47 51 52 53 54 56 59 60 60 59 58 57 56 55 55 54 53 52 51 49 48 46 44 42 40 39
18 18 18 18 18 17 16 16 16 17 18 19 19 18 18 17 15 12 11 13 12 9 6 5 3 1 3 3 5 6 7 7 8 10 12 14 14 13 15 20 23 25 24 23 24 26 26 25 24 26 29 32 35 37 39 41 43 45 47 51 53 55 56 57 59 60 61 60 60 58 57 56 55 54 53 52 51 51 50 48 47 46 45 44 43 41
20 19 19 20 19 19 18 18 18 17 18 18 19 19 19 20 18 15 14 14 13 10 7 6 5 3 2 3 6 7 8 8 8 9 13 15 15 16 19 21 24 27 27 24 24 26 26 25 26 28 32 36 39 42 44 46 48 50 52 55 56 57 59 60 61 61 60 59 58 57 56 55 54 52 51 50 50 50 49 49 48 48 47 45 44 41
23 22 22 22 22 21 21 21 20 19 19 19 19 19 19 20 19 17 17 16 13 10 7 7 7 6 4 2 4 4 5 8 8 9 13 15 16 18 21 22 24 27 28 23 17 14 18 23 26 29 32 35 39 42 44 46 49 51 53 55 56 58 59 60 60 60 59 58 57 56 55 53 52 51 50 50 50 50 50 50 50 49 48 46 43 41
23 23 23 24 23 23 23 23 22 21 20 20 20 20 20 20 19 18 18 17 15 12 9 8 8 8 6 2 2 1 2 7 8 9 13 15 17 19 22 21 22 26 29 25 12 2 7 13 20 26 31 34 36 39 41 43 46 48 49 50 52 54 56 58 58 57 56 56 55 54 53 52 51 51 50 50 50 51 50 50 50 48 47 44 42 40
22 22 22 23 23 23 24 24 23 23 22 21 21 21 20 19 19 18 17 16 15 14 12 10 9 9 8 6 2 2 3 7 8 8 12 15 18 20 22 20 20 22 26 29 24 14 8 6 12 22 29 32 34 35 37 39 42 45 47 47 47 48 51 53 54 54 53 53 52 52 51 51 50 50 49 49 48 48 47 47 46 45 44 42 40 38
21 21 22 22 23 23 23 23 23 23 22 22 22 22 21 20 19 18 17 16 15 14 13 11 10 10 10 9 5 2 5 8 9 9 11 15 18 19 20 20 20 20 23 28 32 29 20 15 15 19 25 30 32 33 35 37 39 42 45 45 44 44 46 48 49 49 49 48 48 47 47 46 45 44 43 42 41 40 39 38 38 38 38 38 37 36
20 21 21 22 22 22 23 23 23 23 22 22 22 22 21 21 20 18 17 16 15 14 13 12 11 11 10 9 6 2 5 10 12 11 10 13 14 15 18 19 21 22 24 26 29 30 27 24 22 20 22 26 30 32 33 33 34 37 40 41 41 41 42 43 44 45 45 45 44 43 42 41 39 37 35 34 32 31 31 30 30 30 31 33 34 34
20 20 20 21 22 22 22 23 23 22 22 22 22 22 22 22 21 20 18 16 15 14 13 12 11 10 9 8 7 4 1 9 13 12 10 10 11 13 16 19 22 25 26 27 27 27 25 24 24 24 22 22 25 29 31 30 30 32 35 37 38 39 39 41 42 43 43 43 43 43 42 41 39 37 35 33 31 30 29 28 28 28 28 30 31 32
18 19 19 20 21 21 21 22 22 22 23 23 23 23 23 22 21 20 19 17 16 14 13 12 11 10 8 7 6 4 1 9 13 13 11 8 8 10 14 18 23 26 27 29 30 29 25 22 24 25 24 20 19 21 26 29 31 32 33 35 36 37 38 40 41 42 43 43 42 42 43 42 42 40 38 37 36 35 33 33 32 32 31 31 31 31
18 18 19 20 20 21 21 22 22 22 23 23 24 24 23 22 21 20 19 18 16 15 14 14 13 11 9 7 4 2 4 10 13 15 13 8 5 7 12 17 22 25 27 29 30 30 27 23 22 23 22 20 18 17 20 27 32 33 34 35 36 37 37 38 40 41 41 41 41 41 41 41 40 39 39 38 38 38 37 36 35 35 34 32 31 30
18 18 19 20 20 21 21 21 22 23 23 24 24 24 23 22 21 20 19 18 17 16 16 16 15 14 12 10 8 7 8 10 13 15 15 9 4 5 12 17 19 21 25 29 31 32 30 24 17 14 15 18 20 22 24 27 29 31 32 34 36 37 37 37 38 39 39 39 39 39 39 39 38 38 37 37 37 37 36 35 34 33 32 31 29 27
19 19 19 20 21 21 21 21 22 23 24 24 23 23 22 21 20 19 19 18 17 16 16 16 16 16 15 14 13 12 12 12 13 15 16 10 4 5 13 17 19 19 22 26 30 33 33 29 23 18 17 18 20 23 26 28 29 31 32 34 35 35 35 36 37 38 38 38 38 38 38 38 37 37 36 35 35 34 34 32 31 30 29 28 27 25
19 19 20 21 21 21 21 22 23 23 23 23 22 22 22 22 21 21 20 19 18 17 17 17 17 18 18 18 18 17 16 15 14 15 16 12 6 7 15 18 20 21 22 24 26 29 31 31 29 28 27 24 23 24 25 27 28 30 32 30 28 28 31 34 36 37 37 38 38 38 37 37 36 36 35 34 33 32 31 30 29 27 26 26 26 25
19 20 21 21 22 22 22 22 22 22 22 22 22 23 24 24 23 22 21 21 20 19 18 17 17 19 21 23 23 22 20 19 16 15 16 14 10 10 16 19 20 21 22 23 24 27 29 31 30 29 28 28 28 28 27 26 27 29 30 27 26 27 30 33 35 36 36 36 36 36 36 35 35 34 33 32 31 30 29 28 27 26 24 24 24 25
20 20 21 21 22 22 22 23 23 23 23 22 23 24 24 25 24 23 22 22 21 21 20 18 17 17 21 25 26 27 26 24 22 19 18 17 16 16 17 18 19 20 22 24 27 29 31 32 32 31 30 29 28 26 25 26 28 31 32 30 30 30 30 31 32 34 34 34 33 33 33 33 33 32 32 31 30 29 28 27 26 25 25 24 23 23
20 20 20 21 21 21 22 23 22 22 23 23 23 24 24 24 23 22 21 21 21 21 20 18 16 16 18 22 26 28 29 28 27 25 23 22 21 20 19 17 18 19 23 26 27 29 31 33 32 31 31 31 30 28 26 26 28 30 31 32 31 27 20 23 28 30 31 31 30 31 31 32 32 32 31 31 30 29 28 27 26 25 24 24 23 23
19 20 20 21 22 22 22 22 22 22 22 22 23 23 24 24 23 22 20 20 20 20 20 17 15 16 18 20 22 25 27 29 29 28 26 24 24 24 22 19 18 19 22 25 27 28 29 31 31 31 33 33 32 31 29 28 27 28 29 31 31 27 22 23 27 30 30 30 30 30 31 32 32 32 31 30 29 28 27 26 25 23 22 21 21 21
20 20 21 21 21 22 22 22 21 21 21 22 23 23 24 24 23 22 21 20 20 21 20 18 15 15 16 18 19 21 25 27 29 28 27 26 25 25 25 22 20 20 21 23 26 29 29 29 28 29 31 32 32 31 30 30 29 28 27 28 29 29 28 30 31 32 32 31 31 31 31 32 32 32 31 30 28 27 26 25 24 22 21 20 19 19
21 21 21 22 22 22 22 22 21 21 21 22 22 23 23 23 23 22 21 20 20 20 20 19 17 16 15 15 17 19 22 24 26 27 27 27 27 28 28 26 24 23 23 24 25 27 29 29 29 30 30 30 29 29 29 30 29 28 28 29 29 29 30 30 30 32 34 35 35 34 33 33 33 32 31 29 28 26 25 24 23 22 21 20 19 19
22 22 22 22 22 22 22 22 22 21 21 22 22 22 23 23 22 22 21 21 20 20 19 20 19 18 17 17 17 18 20 21 23 24 26 27 29 30 30 30 29 29 29 29 29 29 28 27 28 29 30 29 27 26 26 27 28 28 28 29 30 29 27 27 28 30 33 35 35 35 35 35 34 33 32 30 28 26 25 23 22 21 21 20 20 20
22 22 22 22 22 22 22 22 22 21 21 21 22 22 23 22 22 21 21 21 21 20 19 19 19 19 18 19 19 19 19 20 21 22 24 25 27 29 31 32 32 32 33 34 34 34 31 29 26 25 26 27 28 27 26 27 28 29 30 31 30 29 28 27 28 30 32 33 33 34 34 34 34 33 31 30 28 26 24 23 21 20 20 19 20 20
21 22 22 21 22 22 21 21 21 21 20 20 21 22 23 22 22 21 20 20 20 20 20 19 18 18 18 18 18 19 20 20 21 21 22 22 24 26 28 30 32 32 33 34 35 35 35 33 31 27 24 24 26 27 28 28 28 29 30 31 31 30 30 29 30 31 32 32 32 32 32 33 33 34 33 31 28 26 25 23 21 20 19 18 18 18
21 22 22 21 21 21 21 21 21 20 20 20 20 20 21 22 22 21 21 20 21 20 20 19 18 18 17 17 18 19 19 19 20 19 19 19 20 22 23 25 28 29 29 30 31 33 34 34 33 31 28 25 24 25 27 28 29 29 28 29 30 31 31 30 30 31 31 31 31 31 31 32 33 33 33 32 30 28 26 24 22 20 19 18 17 16
21 22 22 21 21 21 21 21 20 20 20 19 19 19 20 21 21 21 21 21 21 21 20 20 19 18 17 17 18 18 19 19 19 19 17 16 16 17 18 20 22 24 24 24 24 25 25 24 24 25 27 25 22 22 25 27 30 29 27 27 28 30 31 30 30 30 30 30 31 31 32 31 31 32 32 31 30 28 26 24 22 20 19 18 17 17
Wind_Direction
280 284 288 289 288 286 286 291 298 303 302 300 301 303 306 310 313 314 312 308 304 300 296 296 299 297 275 243 233 231 229 227 225 223 222 221 221 223 224 225 227 228 229 230 231 231 231 230 226 222 217 216 217 214 207 203 203 208 214 219 220 219 217 215 213 210 208 206 205 203 202 201 200 201 202 203 201 199 196 195 196 196 195 192 190 189
276 281 285 287 288 286 284 285 288 295 299 299 299 301 302 306 311 313 313 307 300 294 289 291 298 303 288 244 230 228 226 223 221 220 221 223 224 225 226 227 228 229 230 230 231 231 231 230 227 224 220 217 217 214 207 203 203 208 214 217 218 216 213 212 212 212 213 211 209 206 203 200 200 200 202 202 201 199 196 195 195 196 195 192 190 189
274 278 281 285 288 288 286 284 283 287 293 295 295 294 296 299 304 308 308 302 296 291 287 288 298 310 308 265 235 226 222 218 216 216 218 222 225 226 227 227 228 229 231 231 231 231 231 230 227 223 221 218 217 214 208 204 203 207 212 215 214 211 209 209 210 211 214 214 212 209 205 201 199 199 201 202 201 199 197 195 196 196 195 193 191 190
269 271 275 281 284 285 284 282 281 282 287 292 291 288 288 289 292 295 296 294 292 290 288 288 297 311 320 301 256 231 219 212 210 212 215 220 224 226 227 227 228 229 231 233 233 232 231 230 226 222 219 218 217 214 209 204 203 206 210 211 210 209 209 210 211 213 215 215 214 211 208 204 201 199 199 200 200 199 198 197 196 197 196 194 191 189
263 265 269 275 278 280 282 283 283 281 283 286 285 282 281 280 281 285 287 288 289 289 288 289 295 307 318 319 293 246 221 210 205 206 211 217 222 225 226 227 228 230 232 234 236 235 233 231 226 221 218 218 218 215 209 204 203 204 206 207 208 209 212 214 215 216 217 216 214 212 211 209 206 202 200 198 198 197 196 196 197 197 197 194 190 187
262 262 265 268 272 277 286 290 289 285 282 280 277 275 273 273 277 283 285 283 283 285 286 287 293 303 310 314 309 278 230 213 204 201 206 214 220 225 227 228 230 231 233 236 238 238 236 232 227 221 216 217 218 217 210 205 203 203 204 204 206 210 214 216 217 218 217 215 213 211 211 211 210 209 205 200 196 193 192 193 195 196 195 192 189 185
262 261 263 266 272 280 288 293 293 288 281 276 273 271 270 269 273 278 281 278 278 281 284 285 289 296 301 305 308 299 250 223 209 202 204 210 218 225 228 230 232 233 235 237 239 240 238 233 226 220 215 215 217 218 213 209 207 206 205 205 206 210 213 215 216 216 214 212 210 209 210 210 211 212 210 205 198 192 189 189 191 193 193 190 187 183
262 262 263 267 274 281 286 290 293 290 282 274 269 269 270 270 272 274 276 275 275 278 282 284 287 291 294 300 307 308 283 243 221 213 211 214 219 225 229 232 234 236 238 240 241 242 240 234 226 219 215 214 215 216 215 214 214 212 210 210 210 210 211 212 212 212 211 210 209 208 207 208 210 212 212 208 203 197 193 191 192 193 192 190 186 181
260 262 264 266 272 279 283 287 290 290 286 276 267 263 267 271 274 277 278 277 275 276 280 285 289 292 294 299 305 309 302 272 241 227 222 223 226 229 232 234 236 239 241 243 244 243 242 236 227 219 214 213 213 214 214 215 216 217 217 218 217 214 212 210 210 210 209 209 209 208 207 206 208 211 211 209 206 202 199 199 199 198 196 192 186 180
252 255 259 262 264 266 270 276 282 285 285 278 268 261 260 265 273 279 281 280 280 280 283 287 291 294 296 299 302 305 303 286 259 240 234 233 234 236 237 238 240 241 243 245 245 244 241 236 228 220 215 213 211 212 213 214 215 217 219 223 224 220 214 210 207 207 207 208 209 209 207 204 205 209 210 208 204 202 202 204 206 205 202 194 185 177
248 247 245 248 250 252 257 268 278 282 282 275 266 259 257 257 262 270 277 281 283 285 287 288 290 292 294 296 298 299 299 290 271 251 243 241 241 242 242 242 242 243 244 245 244 243 239 234 228 221 217 214 211 210 210 212 213 215 217 222 226 222 213 207 204 204 206 208 208 206 204 203 204 207 208 205 201 199 200 203 206 206 201 191 180 172
295 273 254 244 242 252 275 304 313 309 300 289 269 252 247 248 250 255 263 273 279 283 286 288 288 288 288 290 293 295 295 290 277 260 249 245 244 244 243 242 242 242 242 243 242 239 235 231 226 221 218 216 213 210 208 208 210 212 215 220 222 219 210 203 199 200 203 206 205 203 200 199 202 206 207 204 200 198 198 199 201 200 194 183 174 167
352 345 339 349 8 20 17 10 3 354 346 337 323 300 283 276 262 255 256 263 268 273 278 283 285 286 285 285 287 290 291 288 278 263 249 242 240 241 241 240 239 238 238 239 238 236 231 226 222 220 218 217 215 212 208 207 207 209 213 217 219 215 207 200 196 197 201 202 202 201 199 198 200 204 206 204 202 199 197 195 194 192 189 180 170 162
354 351 352 4 17 22 18 13 9 3 356 348 341 337 337 336 323 292 266 259 259 263 269 275 279 282 283 282 283 284 285 283 275 261 247 240 237 237 237 236 236 235 235 235 235 233 228 223 219 218 217 217 216 213 210 208 208 209 211 213 215 213 207 199 195 195 198 199 199 198 196 195 197 201 203 204 203 200 196 191 188 186 183 176 167 158
355 352 354 2 9 11 8 5 2 356 345 336 332 332 333 334 331 318 292 268 258 256 260 266 272 276 277 277 278 279 279 273 258 244 235 233 234 234 233 232 233 234 234 233 234 232 228 222 219 217 216 216 215 214 212 210 210 210 210 210 210 209 206 199 195 194 196 197 197 196 194 191 193 197 201 204 203 199 193 187 183 180 174 165 157 153
357 357 356 356 358 359 359 357 356 350 342 335 333 333 334 332 329 323 309 293 271 254 248 254 265 272 273 272 273 274 270 256 238 225 218 220 226 230 229 226 227 229 231 230 230 230 228 224 220 217 216 215 214 213 211 210 210 211 210 208 206 204 201 196 193 194 195 195 194 193 191 189 191 195 200 201 199 194 189 183 178 172 164 157 152 149
359 359 356 352 351 350 349 351 351 349 344 338 334 331 329 325 322 317 309 303 286 258 234 235 244 269 270 268 269 267 255 236 221 212 206 207 215 222 223 220 219 223 227 227 227 227 226 225 222 219 216 214 212 211 210 210 210 210 208 206 203 199 196 191 190 191 192 193 192 190 188 187 189 193 197 196 194 190 184 176 169 163 156 152 149 147
359 359 355 350 346 343 342 345 348 349 346 340 334 328 323 320 317 312 305 299 287 262 231 224 226 232 241 268 272 260 239 219 209 202 199 200 208 215 218 217 217 220 222 223 224 224 223 223 222 219 216 213 211 209 209 208 208 207 205 202 200 197 193 190 188 188 190 191 190 189 187 187 188 190 191 191 188 182 173 164 157 153 150 148 146 145
357 358 354 348 341 338 337 342 345 346 344 338 331 325 320 318 317 313 305 296 286 269 242 222 221 229 239 257 275 272 242 213 202 195 192 193 200 208 211 212 214 217 219 220 221 220 219 221 221 218 215 211 209 207 207 206 205 203 201 199 196 194 192 191 191 190 189 188 190 190 187 187 186 185 185 183 177 167 159 153 149 147 146 145 144 144
354 355 352 345 339 335 335 339 343 343 341 336 330 323 316 315 315 313 305 296 292 286 267 230 221 231 246 261 275 277 255 218 200 192 188 184 190 199 204 205 207 211 215 219 219 218 217 217 217 215 212 209 206 205 205 203 201 198 196 195 193 192 190 190 192 192 190 188 188 187 182 181 179 178 178 171 162 155 151 148 146 145 144 143 142 142
351 350 348 345 341 337 336 337 339 341 340 336 330 322 313 312 312 309 304 300 301 305 305 270 249 258 269 272 273 273 264 224 199 188 180 177 184 193 197 199 202 205 208 212 214 214 213 212 211 210 207 205 204 203 202 200 197 194 192 191 190 189 187 187 187 186 184 183 182 178 173 169 168 168 167 160 153 149 147 145 145 144 143 142 141 140
350 347 347 348 346 342 338 335 337 340 342 340 333 322 313 308 305 301 298 298 302 308 314 306 296 291 289 279 271 267 263 224 199 183 169 161 167 181 187 190 194 195 195 197 200 203 205 206 206 205 203 201 200 199 199 198 195 192 190 189 188 186 183 181 180 179 175 173 171 167 161 158 157 157 156 152 148 146 145 144 143 143 143 142 141 140
354 350 350 351 350 347 342 340 340 342 345 344 337 325 315 304 294 288 286 285 288 293 295 293 289 283 276 270 266 262 251 223 197 176 159 143 149 166 174 179 181 182 181 182 183 186 193 196 198 199 198 197 195 195 195 196 194 192 189 188 186 184 180 175 173 171 168 165 161 157 153 150 149 148 148 147 146 145 144 143 142 142 142 142 141 141
357 355 354 353 352 350 347 344 344 345 347 347 343 336 326 311 296 287 283 282 286 292 295 294 286 274 265 262 258 250 237 217 198 179 163 141 141 154 162 165 164 162 164 168 169 171 175 181 186 190 192 192 191 191 192 193 192 189 185 184 183 179 174 168 165 164 162 159 155 151 148 146 145 145 145 145 145 144 142 141 141 141 141 141 141 141
359 357 356 355 354 352 349 347 347 348 350 350 348 344 338 326 308 294 291 293 296 297 294 286 279 272 265 260 250 241 231 215 204 193 174 142 134 141 150 153 149 142 141 148 154 158 160 165 171 177 182 185 187 188 188 188 186 182 179 179 177 172 165 161 159 159 157 155 152 149 146 145 144 143 143 143 143 142 140 139 139 139 140 140 140 139
0 359 358 357 356 354 352 351 351 352 353 355 353 351 349 347 340 326 312 311 308 298 282 267 255 245 236 231 233 234 230 214 205 193 171 146 132 131 137 142 137 127 121 126 134 140 143 146 151 159 166 171 177 180 180 179 177 174 172 171 167 162 157 156 155 154 152 151 149 147 145 143 142 142 141 141 140 140 139 139 138 138 138 137 136 136
3 2 2 1 1 359 358 357 356 356 357 359 359 359 1 6 10 12 6 349 341 331 310 279 246 199 186 183 195 213 225 208 193 178 159 146 135 127 129 130 125 117 109 108 113 120 125 128 132 138 146 153 160 165 167 168 167 165 162 160 157 154 152 152 151 149 148 147 146 145 143 142 140 140 139 139 139 139 139 139 138 137 136 134 133 133
7 7 6 6 6 5 5 4 3 1 1 2 4 7 12 17 18 13 0 350 345 337 311 288 269 215 182 158 164 187 211 195 176 159 145 140 133 126 128 126 121 113 105 99 99 104 109 112 116 122 128 134 140 145 150 152 153 153 152 151 150 149 148 148 146 145 143 143 142 141 140 140 139 138 137 137 137 138 138 138 137 136 134 132 130 130
11 11 11 11 11 11 11 12 10 7 6 7 10 14 19 20 18 9 357 354 348 336 312 296 290 281 238 165 159 175 200 200 179 150 136 133 130 128 130 127 122 117 111 104 97 93 93 98 105 112 117 122 126 129 133 136 139 140 141 142 143 144 143 143 142 140 139 139 138 138 138 138 137 137 136 136 137 137 138 138 137 135 133 131 129 128
9 10 12 13 13 13 14 13 13 11 11 13 16 19 21 21 17 10 5 2 355 342 321 311 305 301 291 188 152 165 205 212 191 151 134 132 132 132 132 131 128 125 121 115 104 89 86 91 98 105 111 115 119 121 123 125 127 129 130 132 133 135 137 137 137 136 135 135 134 134 135 135 135 135 136 136 137 138 138 138 137 135 132 130 128 127
3 4 6 8 9 11 11 12 12 13 15 17 18 19 20 19 16 13 10 7 1 350 334 323 314 310 306 264 163 152 216 213 191 150 134 135 136 136 135 135 134 132 130 127 124 90 96 92 95 101 108 112 114 116 118 120 121 122 123 123 124 126 129 130 131 131 132 132 132 132 132 132 133 134 135 136 137 137 138 138 136 134 131 129 127 125
0 2 2 3 5 7 8 9 11 12 14 16 16 16 16 16 14 12 10 8 5 359 349 337 326 316 309 293 264 193 196 200 185 152 131 132 135 136 136 136 135 135 133 132 130 127 122 113 105 104 107 109 111 113 116 118 119 120 121 120 119 120 123 125 125 126 127 129 130 130 131 131 132 133 135 136 136 137 137 136 135 134 132 130 128 126
1 1 1 2 4 5 6 7 8 9 10 10 10 10 11 12 12 11 10 10 10 7 0 351 341 328 318 312 303 237 177 180 179 161 134 130 133 136 136 134 133 132 130 128 127 126 124 125 117 109 106 107 110 113 115 118 118 119 120 119 118 119 120 121 122 123 124 125 127 129 131 132 134 135 137 137 138 138 138 138 137 136 135 133 130 128
1 1 1 2 2 4 5 6 6 6 6 5 5 5 7 8 9 9 10 13 15 15 12 4 353 340 328 322 312 265 157 166 175 173 145 134 132 134 137 135 133 132 128 125 124 123 122 121 118 113 107 105 107 110 113 115 116 118 119 119 119 119 120 120 121 121 122 123 124 126 129 132 135 137 139 141 142 143 143 143 142 141 140 137 134 132
2 1 1 1 1 1 2 2 3 2 2 2 2 3 4 5 5 6 8 12 18 22 23 21 11 357 341 320 307 300 160 161 176 182 166 142 126 126 135 137 137 135 132 129 127 124 123 120 119 118 114 105 102 105 109 110 113 115 117 118 119 120 121 121 121 121 122 123 123 125 127 130 132 135 137 140 142 143 144 145 145 145 143 141 139 138
2 1 1 1 0 360 359 359 359 359 358 358 359 1 2 3 4 5 7 11 18 26 32 36 34 25 8 344 321 309 175 160 176 189 187 160 128 122 135 141 141 139 136 133 132 130 127 122 119 118 115 110 104 102 103 106 108 110 111 113 116 118 120 121 122 122 123 123 124 125 127 129 130 131 133 136 138 139 140 141 142 143 143 143 143 143
3 2 1 0 360 359 357 357 357 356 355 355 357 358 360 1 2 4 7 12 19 28 36 41 45 46 41 34 28 64 133 150 171 191 202 189 145 121 135 144 145 142 139 137 135 132 129 124 120 117 114 113 113 110 104 102 103 103 103 107 111 114 117 120 122 123 123 123 124 125 127 127 127 128 129 132 134 135 136 137 139 140 141 142 143 143
3 1 360 360 359 358 356 355 354 353 353 353 354 356 358 360 2 5 8 13 21 29 36 41 47 52 56 61 71 94 118 134 162 187 201 206 188 137 142 148 148 145 142 141 138 135 131 128 125 120 116 114 114 114 112 107 102 99 99 103 107 111 115 118 121 122 122 122 123 125 126 127 127 127 129 131 132 132 132 133 135 137 138 138 137 137
2 0 359 359 358 357 355 353 352 351 352 353 354 356 359 2 6 10 13 17 23 30 37 41 45 51 59 69 83 97 111 126 152 177 192 203 203 155 151 151 150 146 143 141 140 137 134 132 130 128 124 119 114 112 111 109 106 103 101 101 102 105 111 116 120 121 122 122 123 123 125 127 129 129 130 132 133 132 131 131 133 135 136 134 131 129
360 359 358 357 356 355 354 352 351 351 353 356 359 2 5 8 11 14 18 22 27 33 40 44 48 53 61 72 83 94 102 114 136 163 182 191 185 150 150 148 147 144 141 140 139 136 134 131 129 128 127 125 121 117 114 111 110 109 107 103 98 99 107 114 119 121 123 124 123 123 124 126 128 129 130 132 133 134 134 133 134 136 138 136 133 129
358 357 356 355 354 354 354 354 354 356 358 1 4 7 9 10 11 12 15 20 25 31 37 43 48 55 63 72 80 86 91 98 114 138 159 166 158 143 143 141 141 141 140 137 133 131 129 127 126 125 125 123 121 119 117 114 113 111 109 107 104 105 109 114 118 121 122 123 123 123 123 124 125 127 128 130 132 133 135 135 136 137 140 142 142 140
357 356 354 353 353 353 354 356 359 1 4 7 9 10 11 12 11 9 8 11 16 21 28 34 41 49 57 64 71 77 82 88 98 114 132 144 149 146 139 135 136 137 135 130 125 123 123 124 125 125 125 122 120 116 113 112 112 112 111 110 109 107 106 109 115 119 119 119 120 122 122 122 122 122 124 125 127 130 134 136 137 139 141 143 145 146
355 354 353 353 354 355 357 360 2 4 7 10 11 11 12 13 12 10 10 11 12 15 20 26 36 46 53 58 62 67 73 81 91 102 114 128 139 145 143 134 129 129 130 126 122 118 118 118 120 122 125 124 120 116 113 111 110 112 114 116 114 110 103 104 110 115 116 117 119 121 121 121 122 123 124 126 128 131 134 136 138 140 142 143 144 144
354 353 354 356 358 0 2 3 4 5 7 9 10 11 12 14 15 15 14 15 16 17 20 26 37 50 55 58 60 62 66 75 85 93 101 113 129 140 142 134 124 121 123 123 122 120 118 115 117 122 125 125 123 120 118 116 115 115 118 120 120 118 115 115 117 118 119 120 122 123 125 126 126 126 126 127 129 132 135 137 138 140 142 143 144 143
357 357 358 360 2 3 4 3 4 6 8 11 12 12 12 14 16 18 18 18 20 21 23 28 39 49 53 57 60 64 66 70 76 83 90 99 114 127 133 131 122 114 112 114 119 121 121 118 119 121 123 123 123 123 123 122 120 119 119 119 119 119 120 122 124 125 124 124 125 126 129 131 131 128 125 124 126 129 133 135 137 138 140 142 143 143
1 0 0 2 3 4 4 4 5 7 10 12 13 13 13 15 17 19 20 22 24 25 27 34 42 49 50 53 59 65 68 69 71 75 80 89 99 110 119 121 118 110 102 101 106 112 116 119 121 122 120 118 117 118 122 123 122 119 118 118 118 118 119 122 125 128 129 128 128 129 132 134 133 128 122 121 123 126 130 132 134 136 138 141 142 143
3 2 2 2 3 4 5 5 7 9 11 13 13 14 14 16 17 20 22 25 27 29 31 37 43 48 49 51 57 63 68 69 71 73 77 82 89 96 104 109 111 108 102 98 96 98 101 108 115 120 121 119 116 115 117 119 120 120 119 120 119 118 116 117 122 127 130 130 130 132 135 135 131 126 122 121 121 123 126 129 131 135 138 140 142 143
4 4 3 3 4 4 4 6 7 8 10 11 13 15 16 18 19 21 23 26 29 32 34 37 41 45 47 49 53 59 66 70 73 76 79 81 86 91 96 100 103 104 102 99 96 94 94 96 101 108 115 119 121 120 118 118 119 120 122 122 122 119 117 119 123 126 129 130 132 134 137 135 132 128 125 122 120 119 122 125 129 133 137 140 142 143
7 6 5 5 5 5 4 5 7 8 9 10 12 14 17 20 23 25 26 28 31 34 36 37 40 42 44 45 49 55 61 66 71 75 79 84 88 92 95 98 100 100 98 97 95 94 92 90 88 89 97 109 116 119 120 119 119 120 121 122 122 121 119 121 124 126 128 129 132 135 137 137 136 135 132 125 120 119 121 123 126 130 134 138 141 141
9 9 8 8 7 7 6 6 6 7 8 10 11 14 17 20 23 26 28 31 34 35 37 38 40 41 42 42 45 50 55 60 64 68 73 83 92 97 98 101 102 101 99 97 94 92 90 84 79 78 81 91 103 112 116 118 119 118 117 119 121 122 122 122 124 127 129 131 133 134 135 135 137 138 136 130 125 123 123 125 127 129 132 135 137 136
11 11 10 10 9 8 8 8 8 8 9 10 12 15 18 21 23 26 29 32 35 36 37 38 41 42 41 41 42 45 50 54 55 56 62 75 91 101 106 107 108 108 106 103 100 98 94 86 76 69 67 73 87 103 114 118 119 117 114 117 121 123 123 124 125 128 130 132 134 135 135 134 135 136 135 132 128 126 125 127 129 132 135 135 134 130
Height
717 716 716 715 715 714 713 712 711 710 709 709 710 711 711 711 711 710 710 710 710 710 710 710 709 707 705 704 704 705 705 707 709 711 711 712 713 714 716 717 719 720 721 722 723 724 725 725 726 727 729 730 732 734 737 740 742 744 746 747 748 750 751 753 755 757 759 760 763 765 768 770 772 774 776 778 780 782 784 787 789 791 793 795 796 798
717 716 715 714 714 713 712 711 710 710 710 710 711 712 712 712 710 709 709 710 710 710 711 710 709 706 704 703 703 703 704 705 707 709 710 710 712 713 715 716 717 719 720 721 722 723 724 725 726 727 728 729 730 733 735 738 740 743 745 745 747 748 750 752 754 756 758 760 762 764 766 768 770 772 775 776 778 780 783 786 788 790 792 794 795 797
716 715 714 713 713 712 711 710 709 709 710 710 711 712 712 711 710 710 709 710 710 710 710 709 708 705 703 701 701 702 703 704 705 706 707 709 710 712 713 715 716 717 718 720 720 722 723 724 725 726 727 728 730 731 734 736 739 741 743 744 745 747 749 751 753 756 758 760 761 762 764 765 768 770 773 775 777 779 781 784 787 789 791 793 794 795
716 715 713 713 712 711 710 710 709 709 709 710 711 711 711 711 711 710 710 710 710 709 708 707 706 704 701 701 701 701 701 702 704 705 706 707 709 710 712 713 715 716 717 718 720 720 721 723 724 725 726 727 729 730 732 734 736 739 740 742 744 746 748 750 752 755 757 759 760 761 763 764 766 769 771 774 776 778 780 783 786 788 790 791 792 793
714 714 713 712 711 710 710 709 709 709 709 709 709 710 710 711 710 710 711 711 710 708 706 705 703 702 701 700 700 700 700 701 702 703 704 706 707 709 710 712 713 715 716 717 718 720 720 721 723 724 725 726 728 729 730 732 735 736 738 740 742 745 747 749 751 753 756 758 760 761 762 763 765 767 770 772 774 776 779 782 785 787 788 789 790 792
712 712 712 711 710 710 709 709 708 708 708 708 708 708 709 710 710 710 711 710 709 707 705 703 701 700 700 700 700 699 700 700 701 702 703 705 706 707 709 710 712 713 715 716 717 719 720 720 722 723 725 726 727 728 729 731 733 735 737 739 741 744 746 748 750 752 755 757 759 760 762 764 765 767 768 770 772 775 778 780 783 785 786 787 788 790
711 711 711 710 710 709 708 708 707 707 707 707 706 707 708 708 708 709 710 709 708 706 704 702 700 699 699 699 699 698 698 698 699 700 702 704 705 706 708 709 710 712 713 715 716 717 719 720 721 722 724 725 726 727 728 730 732 733 735 738 740 742 745 747 749 752 754 756 758 759 761 763 765 767 769 770 772 774 776 779 781 783 784 785 787 789
709 709 710 709 709 708 708 707 706 706 706 706 705 705 706 706 705 705 705 706 706 705 702 700 698 698 697 697 697 696 696 696 697 699 700 702 704 705 707 708 710 711 712 714 715 716 718 719 720 721 723 724 725 726 728 729 730 732 733 736 738 740 743 746 748 751 753 755 756 758 760 763 765 767 769 771 773 775 776 777 780 781 783 785 786 788
708 708 708 708 708 708 707 706 705 705 705 705 704 704 704 703 702 702 701 701 702 702 700 698 696 696 696 695 695 695 695 695 696 697 699 701 702 704 706 707 709 710 711 712 714 715 716 717 719 720 721 723 724 726 727 728 730 731 732 734 736 738 741 744 747 749 752 754 755 757 760 762 764 766 768 771 773 775 776 778 779 781 783 785 786 787
706 706 706 707 707 707 706 705 704 704 704 703 703 702 701 701 700 700 698 697 697 697 697 696 696 695 695 694 694 694 695 695 695 696 698 700 701 703 705 706 708 709 710 711 712 714 715 716 717 719 720 721 723 725 726 727 729 730 731 733 735 736 739 742 745 748 750 752 754 756 758 760 762 765 767 769 771 774 776 778 780 781 783 785 786 786
704 704 704 704 704 704 704 704 703 702 702 702 701 700 700 700 699 699 697 695 694 694 695 695 695 695 695 694 694 694 695 695 695 696 697 699 700 702 704 705 706 708 709 710 711 712 713 715 716 717 719 720 721 723 725 726 728 729 730 732 734 735 737 740 743 746 749 751 753 755 757 759 761 764 766 768 770 772 774 777 779 781 783 785 785 785
703 702 701 701 701 702 702 702 702 702 701 700 699 699 698 698 698 698 697 695 694 693 694 694 695 695 695 694 694 694 695 695 695 696 697 698 700 701 703 704 705 706 708 709 710 710 712 713 715 716 717 719 720 721 723 725 726 728 730 731 732 734 736 739 742 745 748 750 752 754 756 758 760 763 765 767 769 771 773 775 778 781 783 785 785 785
705 704 702 701 700 701 702 701 701 701 702 701 700 699 697 696 696 697 696 695 694 694 694 694 694 694 694 694 694 694 694 694 695 695 696 698 699 700 701 703 704 705 706 707 708 709 710 712 713 715 716 717 718 720 721 723 725 727 728 730 731 733 735 738 741 744 746 749 750 753 755 757 760 763 765 766 768 770 772 774 777 780 783 784 785 786
707 706 704 703 703 703 703 703 703 703 703 703 702 700 699 697 696 696 696 695 694 694 695 694 693 693 693 693 693 694 694 694 694 695 696 696 698 699 700 701 702 703 705 705 706 707 709 710 711 713 714 715 717 718 720 722 724 725 727 729 730 732 735 738 740 743 745 747 749 751 754 756 759 762 764 766 768 770 772 774 777 780 783 785 786 787
709 708 706 705 705 705 705 705 704 704 703 703 702 701 700 698 697 697 696 695 695 695 695 694 693 692 692 692 693 693 694 694 694 695 695 695 696 697 699 700 701 702 703 704 705 706 707 708 710 711 713 714 715 717 718 720 722 724 726 728 730 732 734 737 740 742 744 746 748 750 752 755 758 760 763 765 767 769 771 774 777 780 783 785 786 787
711 710 709 708 708 707 707 706 705 704 703 703 702 702 701 700 699 698 697 696 695 694 694 694 694 693 692 692 692 693 693 694 693 693 694 694 695 696 697 699 700 701 702 703 704 705 706 707 708 710 711 712 714 715 717 719 721 723 725 726 729 731 733 736 739 741 744 745 747 749 751 754 756 759 762 764 766 768 771 774 777 780 782 784 785 787
713 712 711 710 709 709 708 707 706 705 704 703 703 702 702 701 700 699 698 696 695 694 694 694 694 694 693 692 692 692 692 692 692 692 692 693 694 695 696 697 699 700 700 701 702 703 705 705 707 708 710 711 713 715 716 718 720 722 724 725 728 730 732 735 738 740 743 745 746 749 750 753 755 758 761 763 765 768 771 774 776 779 781 783 784 786
714 713 712 711 710 710 709 707 706 705 704 704 703 702 701 701 700 699 698 696 695 694 693 693 694 694 693 692 692 691 691 690 690 690 691 692 692 693 695 696 697 698 699 700 701 702 703 704 705 707 708 710 712 714 715 717 719 721 723 725 727 729 732 734 737 740 742 744 746 748 750 752 755 757 760 762 765 768 771 773 776 778 780 782 784 785
715 715 714 713 712 710 709 708 707 706 705 705 704 703 701 700 699 699 698 697 695 693 692 692 693 693 693 692 691 691 690 689 689 689 690 690 691 692 694 695 696 698 699 699 700 701 702 703 705 706 707 709 711 713 715 716 718 720 722 724 726 728 731 734 736 739 742 744 746 748 750 752 754 757 759 762 765 768 770 772 774 777 780 782 784 785
717 716 715 714 713 711 710 709 708 707 706 706 705 704 702 700 699 699 698 697 695 693 692 692 692 692 691 691 691 690 690 689 688 689 689 690 690 692 693 694 695 697 698 699 700 700 702 703 704 705 707 708 710 712 714 715 717 719 721 723 725 728 730 733 736 739 742 744 746 748 750 752 754 756 759 762 765 767 769 771 773 775 778 781 783 785
718 717 716 715 714 712 710 709 709 708 707 706 705 704 702 701 700 699 698 698 696 694 692 691 691 691 690 690 690 690 689 689 688 688 688 689 690 691 692 693 695 696 697 698 699 700 701 702 703 705 706 708 710 711 713 715 717 719 720 723 725 727 729 732 735 738 741 743 745 748 750 753 755 756 759 762 764 766 768 770 772 775 777 780 782 784
719 718 716 715 714 713 711 710 709 708 708 707 706 705 703 701 700 699 699 699 697 695 693 692 691 690 690 690 690 690 689 688 688 688 688 689 690 690 691 693 694 695 696 697 698 699 700 701 703 704 706 708 709 711 713 715 716 718 720 722 724 726 728 730 734 737 739 741 744 747 750 753 755 757 759 762 764 765 767 769 771 774 777 779 782 784
720 718 717 715 714 713 712 710 709 708 708 707 706 705 704 702 700 700 699 699 697 695 693 692 691 690 690 690 690 690 689 688 688 688 688 689 689 690 691 692 693 694 695 696 697 698 699 700 702 704 705 707 709 711 712 714 715 717 719 721 723 725 727 730 732 735 738 741 743 746 749 752 755 757 759 761 763 765 767 769 771 774 777 780 782 785
720 718 717 715 714 713 711 710 709 708 707 706 705 704 703 701 700 699 699 698 696 694 692 691 690 690 689 690 690 689 688 688 688 688 688 688 689 690 690 691 692 694 695 696 696 697 698 700 701 703 705 707 709 710 712 714 715 717 719 720 723 725 727 729 731 734 737 740 743 746 749 752 754 756 759 761 763 765 768 770 772 774 777 780 783 786
720 719 717 716 715 713 712 710 709 708 707 705 704 702 701 700 699 698 698 697 695 694 693 692 690 689 688 689 688 688 688 688 688 688 688 688 689 690 690 691 692 693 695 696 696 697 698 699 701 703 705 707 709 710 712 714 715 717 719 721 723 725 726 729 731 734 737 740 743 746 750 752 754 756 759 761 763 765 768 770 772 775 778 781 784 787
720 719 717 716 715 713 711 710 709 708 706 705 703 701 699 698 697 697 697 696 696 695 694 692 690 688 688 687 687 687 688 688 689 689 688 688 689 690 691 691 692 693 695 696 697 697 698 700 702 704 705 707 709 710 712 714 715 717 719 721 723 725 726 729 732 735 737 740 743 746 749 752 755 757 759 761 764 766 768 770 773 776 779 782 785 789
720 718 717 715 714 712 711 709 708 707 705 704 702 700 697 696 695 695 696 696 695 695 694 691 689 687 687 686 686 687 688 688 689 689 688 688 689 690 691 692 692 693 695 697 698 698 699 701 703 704 705 707 709 711 713 715 716 717 719 722 724 725 726 729 732 735 737 740 743 746 749 753 755 758 760 762 764 766 768 771 773 776 779 783 787 791
719 718 716 715 713 712 710 709 708 706 705 703 701 699 696 695 694 695 695 695 695 694 693 691 688 686 685 685 685 687 689 689 689 689 688 687 688 690 691 692 692 692 694 698 699 700 701 703 705 706 707 709 711 713 715 716 717 719 720 722 724 725 727 730 733 735 738 741 744 747 750 753 756 759 761 763 765 767 769 771 774 777 780 784 788 792
719 717 716 715 713 712 710 709 707 706 705 703 701 699 696 695 695 695 696 695 694 693 692 690 687 685 685 685 686 688 690 690 689 688 687 687 688 689 691 692 692 692 693 698 701 703 704 706 707 708 709 710 712 715 717 719 720 721 723 724 725 727 729 731 734 737 739 742 745 748 750 754 757 760 762 764 766 768 770 771 774 777 781 785 788 791
718 717 715 714 713 712 710 709 707 706 704 703 700 699 698 697 697 696 696 695 694 693 692 690 688 686 686 686 687 689 691 691 689 687 686 686 687 689 690 691 691 691 692 696 701 706 709 710 711 711 712 713 714 716 719 720 722 724 726 728 729 730 731 733 736 738 741 744 746 749 751 754 757 760 763 765 767 769 770 772 775 778 781 784 787 790
719 717 716 715 714 712 710 709 707 706 704 703 701 700 699 698 698 697 696 695 695 694 693 691 690 688 688 687 687 689 691 690 689 687 685 685 686 687 689 691 692 691 690 692 698 705 711 714 715 715 715 716 717 719 720 722 724 725 728 730 733 734 735 736 738 740 743 745 748 750 753 755 758 761 764 766 768 770 771 773 775 778 780 783 786 789
721 719 718 716 715 713 712 710 708 706 705 704 702 701 701 700 699 698 698 696 695 694 693 692 690 690 689 688 687 688 690 690 688 686 685 685 686 687 688 690 692 693 693 691 694 700 708 714 717 718 718 719 720 722 724 725 726 727 729 731 735 738 739 739 740 743 745 748 750 752 755 757 760 763 766 768 770 772 773 775 776 778 780 782 785 788
722 721 720 718 716 715 713 712 710 708 707 705 704 703 702 701 700 700 699 697 696 695 694 692 691 690 690 689 688 688 688 688 687 685 685 685 686 688 689 690 692 694 695 695 696 699 704 711 715 718 720 721 722 725 727 728 729 730 730 732 735 739 740 741 742 745 747 750 753 755 758 761 763 766 768 770 772 774 775 777 778 780 781 783 785 788
724 722 721 719 718 716 715 713 712 710 709 708 706 705 704 702 701 700 699 698 697 695 694 693 692 691 690 689 688 688 686 686 685 685 685 686 687 689 690 690 692 694 695 697 700 703 707 710 714 717 720 722 724 725 728 730 731 732 733 733 736 739 741 742 744 746 749 751 755 758 761 764 767 769 771 773 774 776 777 779 781 783 785 785 787 789
725 724 722 721 719 717 716 715 713 712 710 709 708 706 704 703 702 700 700 698 697 695 694 693 692 692 691 690 689 687 685 684 684 685 686 686 687 689 690 691 692 693 695 697 700 704 709 712 714 716 720 723 726 728 729 730 732 733 735 735 737 740 742 743 745 747 750 752 755 759 763 766 768 771 773 775 776 777 779 781 784 786 788 790 791 792
727 725 724 722 720 719 717 716 714 713 711 710 708 706 705 704 702 701 700 698 697 695 694 693 692 692 691 690 689 687 685 684 685 685 686 687 688 689 691 692 693 693 694 696 699 702 707 712 715 717 719 722 727 730 732 732 732 733 735 736 738 740 743 744 746 748 750 754 757 760 764 766 769 771 774 776 777 779 781 783 786 788 791 793 795 797
728 727 725 724 722 720 718 717 715 714 712 710 709 707 705 704 702 701 699 697 696 695 694 693 692 692 691 690 689 687 685 684 685 686 687 688 689 690 691 693 694 694 695 695 698 700 705 710 715 718 720 722 726 730 733 733 733 734 736 738 739 741 744 746 748 750 752 755 758 761 765 767 769 772 775 776 778 780 782 785 787 790 792 795 797 799
730 728 727 725 723 722 720 718 716 715 713 711 710 708 706 704 703 701 699 697 695 694 693 693 692 691 691 690 689 687 686 685 685 686 687 689 691 691 692 694 695 696 696 696 696 698 701 706 712 717 721 724 726 729 731 732 733 735 738 739 740 742 745 748 750 752 754 757 760 762 765 767 769 772 774 776 778 780 783 786 788 791 793 795 798 800
731 730 728 726 725 723 721 720 718 716 714 712 710 709 707 705 703 701 699 697 695 694 693 693 692 692 691 690 688 687 686 685 686 686 688 690 692 693 694 695 696 698 699 699 698 698 699 702 707 713 719 724 727 730 731 732 733 735 738 740 743 745 748 750 752 754 756 758 761 763 766 768 770 772 775 777 779 781 783 786 789 791 792 794 796 799
732 731 730 728 726 725 723 722 720 718 715 713 711 710 707 705 703 701 699 698 696 695 694 693 693 692 691 689 688 686 686 686 686 687 689 691 694 695 695 696 698 699 700 701 701 700 700 702 706 710 714 719 724 728 732 734 735 736 737 741 746 750 752 753 755 757 759 760 762 765 767 769 771 773 776 778 780 782 784 786 788 790 792 794 795 798
734 733 731 729 728 726 725 723 721 719 717 715 713 710 708 706 704 702 700 699 697 695 694 694 694 693 691 689 688 687 687 687 687 688 689 693 696 697 698 699 700 701 702 703 703 702 701 703 707 712 715 718 722 726 730 734 736 737 738 742 747 751 754 756 757 759 761 763 765 766 768 770 772 775 777 780 781 783 785 787 789 791 793 795 796 798
736 735 733 731 729 727 726 724 722 720 718 716 714 712 710 708 706 705 703 701 699 697 696 695 695 694 692 690 689 688 688 688 689 690 691 694 697 700 700 701 702 703 703 703 703 704 703 704 707 711 715 718 721 725 730 735 737 739 741 744 748 752 755 758 760 761 763 765 767 768 770 771 773 775 778 780 782 785 787 789 790 793 795 797 799 800
739 737 735 733 731 730 728 725 723 721 720 717 716 714 712 711 709 708 706 704 702 700 699 697 697 695 694 692 691 691 691 691 691 692 693 696 699 702 703 704 705 705 705 704 704 705 706 707 709 712 715 718 720 724 729 734 738 740 743 745 747 750 756 760 762 763 764 766 768 770 771 772 774 776 779 781 783 786 788 790 793 795 797 799 801 803
741 739 737 735 733 731 729 727 725 723 722 720 718 716 715 713 712 710 709 707 705 703 701 700 699 697 696 695 695 695 694 694 694 695 697 699 701 703 706 707 707 707 706 705 705 706 708 710 713 716 718 720 723 726 730 735 739 743 745 747 749 751 756 760 762 763 765 767 770 771 773 774 776 778 781 783 786 789 791 793 795 798 800 801 803 805
743 740 738 736 734 732 730 729 727 726 724 722 720 719 717 716 714 713 711 710 708 706 704 703 701 700 699 699 698 698 697 697 698 699 700 702 703 705 707 709 710 710 709 709 708 708 709 711 715 719 721 723 725 728 732 736 740 744 748 750 751 754 758 760 762 764 766 769 771 774 775 777 779 781 784 787 790 792 794 796 798 800 802 803 805 806
744 742 740 738 736 735 733 731 730 728 726 725 723 721 720 718 717 715 714 712 710 709 707 706 704 703 703 702 702 701 701 701 702 703 705 705 706 707 709 711 712 713 712 712 712 712 711 713 716 719 722 725 729 732 735 737 741 745 748 751 753 756 760 762 765 766 768 770 773 775 778 779 781 784 787 790 793 795 797 799 800 802 803 805 806 807
746 744 742 740 739 737 735 734 732 730 728 727 725 724 722 721 719 718 716 715 713 712 710 709 707 706 706 706 705 705 705 705 706 707 709 709 710 710 711 712 714 715 715 714 714 715 716 719 720 721 723 725 730 735 739 740 742 745 748 751 754 757 761 764 767 769 770 772 775 777 779 781 783 786 789 792 795 797 799 801 803 804 805 806 808 809
748 746 745 743 741 739 737 736 734 733 731 730 728 727 725 724 722 720 719 717 716 715 713 712 711 710 709 709 709 709 708 708 709 710 712 713 713 713 713 714 715 716 717 716 716 716 719 722 725 727 727 727 730 735 740 742 745 746 749 752 755 758 762 765 769 771 773 775 777 779 780 781 784 787 790 793 796 799 801 803 805 806 807 808 809 810
751 749 747 745 744 742 740 738 737 735 734 732 731 729 728 726 725 723 722 720 719 717 716 715 715 714 713 713 712 712 711 711 712 713 714 716 716 716 716 717 717 718 719 719 719 720 721 724 727 731 733 734 734 736 740 743 746 749 751 754 756 759 763 767 770 772 774 776 779 780 782 783 785 786 789 793 797 800 803 805 807 808 809 810 811 812
753 751 750 748 746 745 743 741 740 738 737 735 734 732 730 729 727 726 724 723 721 720 720 719 718 717 716 716 715 715 715 715 715 715 717 718 719 720 720 720 720 720 721 722 723 724 725 728 731 735 738 740 740 741 742 745 748 751 754 756 759 761 764 768 771 773 775 777 779 781 783 785 786 788 790 793 797 801 804 806 808 810 811 811 812 813
755 754 752 750 749 747 746 744 742 741 739 738 736 735 733 731 730 728 727 725 724 723 722 721 721 720 720 719 719 718 718 717 718 718 719 720 721 722 722 722 722 722 722 724 726 727 729 732 736 740 743 745 747 747 747 747 749 752 756 760 762 764 766 769 772 774 776 778 780 782 784 786 788 790 791 794 797 801 805 807 809 810 812 812 813 813